Location: Grand Lay
(47.3253°N, 0.9468°E)
Time: 20:30:52
(UTC+00:00)

Cosmos 1500 Rocket - Pass Details

Date: 18 January 2026
Orbit: 597 x 623 km, 82.5° (Epoch: 14 February)

Event Time Altitude Azimuth Distance (km) Brightness Sun altitude
Rises 05:17:11 0° 191° (S) 2,855 6.9 -23.2°
Reaches altitude 10° 05:19:23 10° 192° (SSW) 1,960 6.1 -22.8°
Maximum altitude 05:23:43 79° 279° (W) 632 3.4 -22.1°
Drops below altitude 10° 05:28:09 10° 7° (N) 1,992 6.1 -21.3°
Sets 05:30:24 0° 9° (N) 2,906 7.0 -21.0°
